Location: Albuquerque Trailhead
(34.7934°N, 106.3736°W)
Time: 00:44:14
(UTC+00:00)

IRIDIUM 104 - Pass Details

Date: 20 June 2021
Orbit: 776 x 779 km, 86.4° (Epoch: 01 August)

Event Time Altitude Azimuth Distance (km) Brightness Sun altitude
Rises 09:22:05 0° 1° (N) 3,265 8.5 -23.6°
Reaches altitude 10° 09:24:27 10° 3° (N) 2,333 7.6 -23.3°
Maximum altitude 09:29:40 69° 87° (E) 829 4.5 -22.7°
Enters shadow 09:31:48 36° 161° (SSE) 1,221 5.0 -22.4°
